Regional Weather Roundup
Issued by NWS

Home | Current Version | Previous Version | Text Only | Print | Product List | Glossary Off
Versions: 1 2 3 4 5 6 7 8 9 10 11 12 13 14 15 16 17 18 19 20 21 22 23 24 25 26 27 28 29 30 31 32 33 34 35 36 37 38 39 40 41 42 43 44 45 46 47 48 49 50

324
ASUS45 KCYS 241110
RWRWY

WYOMING REGIONAL WEATHER ROUNDUP
NATIONAL WEATHER SERVICE CHEYENNE WY
500 AM MDT TUE APR 24 2018

NOTE:  "FAIR" INDICATES FEW OR NO CLOUDS BELOW 12,000 FEET
WITH NO SIGNIFICANT WEATHER AND/OR OBSTRUCTIONS TO VISIBILITY.

WYZ001-241200-
YELLOWSTONE NATIONAL PARK

CITY           SKY/WX    TMP DP  RH WIND       PRES   REMARKS
LK YELLOWSTONE   N/A     19  13  77 VRB3      30.42S
W YELLOWSTONE  NOT AVBL

$$
WYZ002>013-054>058-071-098>099-241200-
NORTHERN WYOMING

CITY           SKY/WX    TMP DP  RH WIND       PRES   REMARKS
JACKSON        CLOUDY    31  20  63 N14       30.35  WCI  21
CODY           FAIR      28  23  81 W3        30.47S
GREYBULL       MOCLDY    31  29  92 CALM      30.46R
WORLAND        FAIR      29  27  92 CALM      30.46R
SHERIDAN       CLOUDY    34  31  88 W5        30.50S WCI  30
BUFFALO        CLOUDY    32  28  85 NW10      30.47R WCI  24
GILLETTE       CLOUDY    31  30  96 NW12      30.45R WCI  22
HULETT         LGT SNOW  32  32 100 MISG      30.45R
NEWCASTLE      FAIR      32  28  86 NW15      30.40R WCI  22

$$
WYZ014>020-022>026-101>103-241200-
CENTRAL WYOMING

CITY           SKY/WX    TMP DP  RH WIND       PRES   REMARKS
BIG PINEY      CLOUDY    29  21  72 S13       30.36R WCI  19
PINEDALE       FLURRIES  30  25  80 W5        30.37R WCI  25
DUBOIS         CLOUDY    27  23  86 SE6       30.37S WCI  20
LANDER         LGT SNOW  30  27  88 SW6       30.43S FOG     WCI  24
RIVERTON       CLOUDY    31  24  75 NE9       30.43R WCI  23
CASPER         CLOUDY    30  27  88 N12       30.44R WCI  20
DOUGLAS        CLOUDY    32  28  85 NW14      30.42R WCI  22

$$
WYZ021-027>030-104>119-241200-
SOUTHERN WYOMING

CITY           SKY/WX    TMP DP  RH WIND       PRES   REMARKS
EVANSTON       FAIR      28  24  85 E17       30.30S WCI  16
KEMMERER       CLOUDY    28  23  80 CALM      30.34S
FORT BRIDGER   FAIR      25  25 100 NE8       30.36R WCI  16
ROCK SPRINGS   CLOUDY    30  22  72 NE13      30.37R WCI  20
DIXON          FAIR      32  26  78 N7        30.32R WCI  25
RAWLINS        CLOUDY    29  23  78 NE12      30.38R WCI  19
SARATOGA       CLOUDY    32  25  74 N8        30.35R WCI  25
LARAMIE        CLOUDY    28  23  81 N14       30.33R WCI  17
CHEYENNE       FLURRIES  30  28  92 MISG      30.33R
TORRINGTON     CLOUDY    36  30  79 NW20G28   30.36R WCI  25
PINE BLUFFS    CLOUDY    32  32 100 N17G25    30.35R WCI  21

$$




USA.gov is the U.S. government's official web portal to all federal, state and local government web resources and services.